Time,TemperatureF,DewpointF,PressureIn,WindDirection,WindDirectionDegrees,WindSpeedMPH,WindSpeedGustMPH,Humidity,HourlyPrecipIn,Conditions,Clouds,dailyrainin,SoftwareType,DateUTC
2013-04-12 00:30:00,30.4,30.4,19.99,WNW,285,0.0,5.0,100,0.00,,---,0.00,VWS V13.00,2013-04-12 04:30:00,
2013-04-12 01:00:00,30.5,30.5,19.99,WNW,285,0.0,11.0,100,0.00,,---,0.00,VWS V13.00,2013-04-12 05:00:00,
2013-04-12 01:30:00,30.4,30.4,19.99,WNW,285,2.0,6.0,100,0.00,,---,0.00,VWS V13.00,2013-04-12 05:30:00,
2013-04-12 02:00:00,30.1,30.1,19.99,WNW,285,0.0,7.0,100,0.00,,---,0.00,VWS V13.00,2013-04-12 06:00:00,
2013-04-12 02:30:00,30.1,30.1,19.99,WNW,285,1.0,8.0,100,0.00,,---,0.00,VWS V13.00,2013-04-12 06:30:00,
2013-04-12 03:00:00,29.5,29.5,20.00,WNW,285,0.0,7.0,100,0.00,,---,0.00,VWS V13.00,2013-04-12 07:00:00,
2013-04-12 03:30:00,29.1,29.1,19.99,WNW,285,1.0,6.0,100,0.00,,---,0.00,VWS V13.00,2013-04-12 07:30:00,
2013-04-12 04:00:00,28.8,28.8,19.99,WNW,285,0.0,4.0,100,0.00,,---,0.00,VWS V13.00,2013-04-12 08:00:00,
2013-04-12 05:30:00,28.3,28.3,20.00,WNW,285,4.0,5.0,100,0.00,,---,0.00,VWS V13.00,2013-04-12 09:30:00,
2013-04-12 06:00:00,28.3,28.3,20.00,WNW,285,2.0,10.0,100,0.00,,---,0.00,VWS V13.00,2013-04-12 10:00:00,
2013-04-12 06:30:00,27.7,27.7,19.99,WNW,285,3.0,10.0,100,0.00,,---,0.00,VWS V13.00,2013-04-12 10:30:00,
2013-04-12 07:00:00,26.6,26.6,20.00,WNW,285,2.0,22.0,100,0.00,,---,0.00,VWS V13.00,2013-04-12 11:00:00,
2013-04-12 07:30:00,26.4,26.4,20.00,WNW,285,3.0,16.0,100,0.00,,---,0.00,VWS V13.00,2013-04-12 11:30:00,
2013-04-12 08:00:00,26.1,26.1,19.99,WNW,285,4.0,15.0,100,0.00,,---,0.00,VWS V13.00,2013-04-12 12:00:00,
2013-04-12 08:30:00,25.5,25.5,19.99,WNW,285,3.0,8.0,100,0.00,,---,0.00,VWS V13.00,2013-04-12 12:30:00,
2013-04-12 09:00:00,25.4,25.4,19.99,WNW,285,2.0,12.0,100,0.00,,---,0.00,VWS V13.00,2013-04-12 13:00:00,
2013-04-12 09:30:00,25.3,25.3,20.00,WNW,285,3.0,16.0,100,0.00,,---,0.00,VWS V13.00,2013-04-12 13:30:00,
2013-04-12 10:00:00,25.3,25.3,19.99,WNW,285,2.0,11.0,100,0.00,,---,0.00,VWS V13.00,2013-04-12 14:00:00,
2013-04-12 10:30:00,25.4,25.4,19.99,WNW,285,2.0,13.0,100,0.00,,---,0.00,VWS V13.00,2013-04-12 14:30:00,
2013-04-12 11:00:00,25.4,25.4,19.99,WNW,285,3.0,11.0,100,0.00,,---,0.00,VWS V13.00,2013-04-12 15:00:00,
2013-04-12 11:30:00,25.8,25.8,19.99,WNW,285,1.0,10.0,100,0.00,,---,0.00,VWS V13.00,2013-04-12 15:30:00,
2013-04-12 12:00:00,25.7,25.7,19.99,WNW,285,2.0,8.0,100,0.00,,---,0.00,VWS V13.00,2013-04-12 16:00:00,
2013-04-12 12:30:00,25.9,25.9,20.00,WNW,285,3.0,13.0,100,0.00,,---,0.00,VWS V13.00,2013-04-12 16:30:00,
2013-04-12 13:00:00,26.1,26.1,19.99,WNW,285,3.0,10.0,100,0.00,,---,0.00,VWS V13.00,2013-04-12 17:00:00,
2013-04-12 13:30:00,26.6,26.6,19.99,WNW,285,3.0,14.0,100,0.00,,---,0.00,VWS V13.00,2013-04-12 17:30:00,
2013-04-12 14:00:00,27.6,27.6,19.99,WNW,285,3.0,23.0,100,0.00,,---,0.00,VWS V13.00,2013-04-12 18:00:00,
2013-04-12 14:30:00,27.4,27.4,19.99,WNW,285,4.0,20.0,100,0.00,,---,0.00,VWS V13.00,2013-04-12 18:30:00,
2013-04-12 15:30:00,27.8,27.8,19.99,WNW,285,1.0,14.0,100,0.00,,---,0.00,VWS V13.00,2013-04-12 19:30:00,
2013-04-12 16:00:00,28.1,28.1,20.00,WNW,285,5.0,20.0,100,0.00,,---,0.00,VWS V13.00,2013-04-12 20:00:00,
2013-04-12 16:30:00,28.4,28.4,19.99,WNW,285,3.0,17.0,100,0.00,,---,0.00,VWS V13.00,2013-04-12 20:30:00,
2013-04-12 17:00:00,28.5,28.5,19.99,WNW,284,3.0,15.0,100,0.00,,---,0.00,VWS V13.00,2013-04-12 21:00:00,
2013-04-12 17:30:00,28.5,28.5,19.99,WNW,284,5.0,18.0,100,0.00,,---,0.00,VWS V13.00,2013-04-12 21:30:00,
2013-04-12 18:00:00,28.4,28.4,19.99,WNW,284,3.0,14.0,100,0.00,,---,0.00,VWS V13.00,2013-04-12 22:00:00,
2013-04-12 18:30:00,28.4,28.4,19.99,WNW,284,1.0,13.0,100,0.00,,---,0.00,VWS V13.00,2013-04-12 22:30:00,
2013-04-12 19:00:00,28.4,28.4,20.00,WNW,284,0.0,15.0,100,0.00,,---,0.00,VWS V13.00,2013-04-12 23:00:00,
2013-04-12 19:30:00,28.2,28.2,19.99,WNW,284,3.0,7.0,100,0.00,,---,0.00,VWS V13.00,2013-04-12 23:30:00,
2013-04-12 20:00:00,28.1,28.1,19.99,WNW,284,2.0,6.0,100,0.00,,---,0.00,VWS V13.00,2013-04-13 00:00:00,
2013-04-12 20:30:00,28.2,28.2,20.00,WNW,284,2.0,5.0,100,0.00,,---,0.00,VWS V13.00,2013-04-13 00:30:00,
2013-04-12 21:00:00,28.2,28.2,19.99,WNW,284,1.0,5.0,100,0.00,,---,0.00,VWS V13.00,2013-04-13 01:00:00,
2013-04-12 21:30:00,28.2,28.2,19.99,WNW,284,1.0,9.0,100,0.00,,---,0.00,VWS V13.00,2013-04-13 01:30:00,
2013-04-12 22:00:00,28.2,28.2,19.99,WNW,284,2.0,10.0,100,0.00,,---,0.00,VWS V13.00,2013-04-13 02:00:00,
2013-04-12 22:30:00,28.3,28.3,20.00,WNW,284,1.0,11.0,100,0.00,,---,0.00,VWS V13.00,2013-04-13 02:30:00,
2013-04-12 23:00:00,28.3,28.3,19.99,WNW,284,0.0,2.0,100,0.00,,---,0.00,VWS V13.00,2013-04-13 03:00:00,
2013-04-12 23:30:00,28.4,28.4,19.99,WNW,284,0.0,7.0,100,0.00,,---,0.00,VWS V13.00,2013-04-13 03:30:00,